Location: La Pernelle
(49.6188°N, 1.2999°W)
Time: 16:23:50
(UTC+00:00)

Cosmos 1626 - Pass Details

Date: 12 June 2021
Orbit: 489 x 493 km, 82.5° (Epoch: 30 July)

Event Time Altitude Azimuth Distance (km) Brightness Sun altitude
Exits shadow 22:58:45 17° 219° (SW) 1,323 3.9 -15.7°
Maximum altitude 23:01:18 41° 285° (WNW) 722 3.1 -15.8°
Drops below altitude 10° 23:04:51 10° 357° (N) 1,699 6.1 -15.9°
Sets 23:07:04 0° 5° (N) 2,587 7.2 -16.0°
